Location: Unspecified
(14.4860°N, 0.0000°E)
Time: 02:06:31
(UTC+00:00)

Transit 2A - All Passes

Search period start: 04 April 2026 00:00
Search period end: 14 April 2026 00:00
Orbit: 591 x 953 km, 66.7° (Epoch: 29 March)

Date Brightness Start Highest point End Pass type
(mag) Time Alt. Az. Time Alt. Az. Time Alt. Az.
4 Apr - 01:14:42 10° SW 01:20:21 38° WNW 01:26:10 10° N night (unlit)
4 Apr - 11:59:06 10° NW 12:03:44 49° WSW 12:08:01 10° S daylight
4 Apr - 22:59:11 10° SE 23:01:23 12° ESE 23:03:36 10° E night (unlit)
5 Apr - 00:37:52 10° SSW 00:43:56 63° WNW 00:50:11 10° NNE night (unlit)
5 Apr - 11:22:34 10° NNW 11:27:26 85° ENE 11:31:52 10° SSE daylight
6 Apr - 00:01:25 10° SSW 00:07:33 81° ESE 00:13:52 10° NNE night (unlit)
6 Apr - 10:46:25 10° N 10:51:02 44° ENE 10:55:17 10° SE daylight
6 Apr - 23:25:21 10° S 23:31:13 49° ESE 23:37:16 10° NE night (unlit)
7 Apr - 01:10:27 10° WSW 01:14:22 17° WNW 01:18:20 10° NNW night (unlit)
7 Apr - 10:10:40 10° N 10:14:34 24° ENE 10:18:12 10° ESE daylight
7 Apr - 11:54:15 10° WNW 11:57:13 17° WSW 12:00:03 10° SW daylight
7 Apr - 22:49:42 10° SSE 22:54:56 30° ESE 23:00:18 10° NE night (unlit)
8 Apr - 00:32:39 10° WSW 00:37:50 28° WNW 00:43:07 10° N night (unlit)
8 Apr - 09:35:44 10° NNE 09:38:01 13° ENE 09:40:12 10° E daylight
8 Apr - 11:16:49 10° NW 11:20:59 31° WSW 11:24:54 10° S daylight
8 Apr - 22:14:42 10° SSE 22:18:41 18° ESE 22:22:43 10° ENE night (unlit)
8 Apr - 23:55:30 10° SW 00:01:21 45° WNW 00:07:21 10° N night (unlit)
9 Apr - 10:40:01 10° NNW 10:44:43 61° WSW 10:49:03 10° S daylight
9 Apr - 23:18:48 10° SSW 23:24:56 74° WNW 23:31:15 10° NNE night (unlit)
10 Apr - 10:03:36 10° NNW 10:08:22 68° ENE 10:12:45 10° SSE daylight
10 Apr - 22:42:28 10° SSW 22:48:35 70° ESE 22:54:50 10° NNE night (unlit)
11 Apr - 00:29:39 10° W 00:31:54 12° WNW 00:34:08 10° NW night (unlit)
11 Apr - 09:27:33 10° N 09:31:57 35° ENE 09:36:00 10° SE daylight
11 Apr - 11:13:43 10° W 11:14:24 10° WSW 11:15:05 10° WSW daylight
11 Apr - 22:06:30 10° S 22:12:15 42° ESE 22:18:08 10° NE night (unlit)
11 Apr - 23:50:52 10° WSW 23:55:18 20° WNW 23:59:48 10° NNW night (unlit)
12 Apr - 08:52:00 10° NNE 08:55:27 19° ENE 08:58:42 10° ESE daylight
12 Apr - 10:34:47 10° WNW 10:38:11 20° WSW 10:41:26 10° SSW daylight
12 Apr - 21:31:01 10° SSE 21:35:58 25° ESE 21:41:00 10° NE night (unlit)
12 Apr - 23:13:19 10° SW 23:18:47 32° WNW 23:24:21 10° N night (unlit)
13 Apr - 08:17:57 10° NE 08:18:52 10° ENE 08:19:45 10° ENE daylight
13 Apr - 09:57:35 10° NW 10:01:56 38° WSW 10:06:01 10° S daylight
13 Apr - 20:56:22 10° SE 20:59:42 15° ESE 21:03:05 10° ENE night (unlit)
13 Apr - 22:36:20 10° SW 22:42:20 53° WNW 22:48:28 10° N night (unlit)
